www.pogodaiklimat.ru

Погода и климат >> Архив погоды >> Индонезия >> Горонтало


ПОГОДА в Горонтало

  • Прогноз погоды в Горонтало
  • Монитор погоды в Горонтало

АРХИВ ПОГОДЫ в Горонтало

Время (UTC), дата Ветер
(напр.,м/с)
 
Видим.   Явления Облачность Т
(С)
Тd
(С)
f
(%)
Тe
(С)
Тes
(С)
Комфортность P
(гПа)
Po
(гПа)
Тmin
(С)
Tmax
(С)
R
(мм)
R24
(мм)
S
(см)
03 14.09 ЮВ 8 10 км 6/6 540 м
[Cu med, cong Ac trans Ci fib]
+30.8 +19.9 52 +37 +39 очень
душно
1011.4 1009.2
06 14.09 ЮВ 9 10 км 3/3 600 м
[Cu hum Ac trans Ci fib]
+31.4 +15.8 39 +34 +35 душно 1009.1 1006.9
09 14.09 ЮВ 8 10 км 1/1 600 м
[Cu hum Ci fib]
+30.0 +16.3 44 +33 +33 душно 1009.0 1006.9
12 14.09 Ю 4 10 км 1/1 600 м
[Cu hum Ci fib]
+27.0 +18.2 59 +32 +32 очень
душно
1010.7 1008.5 +32.6
15 14.09 штиль 0 10 км 1/1 600 м
[Cu hum Ci fib]
+24.2 +19.0 73 +29 +29 душно 1011.9 1009.8
18 14.09 З 2 10 км 1/1 600 м
[Cu hum Ci fib]
+23.3 +19.2 78 +30 +30 очень
душно
1010.8 1008.6
21 14.09 З 1 10 км 1/1 600 м
[Cu hum Ci fib]
+20.4 +18.9 91 +25 +25 комфорт 1010.9 1008.7
00 15.09 ЮВ 3 10 км 1/1 600 м
[Sc]
+26.3 +20.2 69 +32 +38 очень
душно
1011.7 1009.4 +20.2
03 15.09 Ю 6 10 км 3/1 600 м
[Cu med, cong Ci fib]
+33.1 +18.6 42 +38 +46 очень
душно
1009.9 1007.6
06 15.09 Ю 7 10 км 3/1 600 м
[Cu med, cong Ci fib]
+32.1 +18.8 45 +37 +41 очень
душно
1007.7 1005.3
09 15.09 Ю 5 10 км 1/1 600 м
[Sc]
+30.3 +18.2 48 +35 +35 очень
душно
1007.6 1005.4
12 15.09 В 1 10 км 1/1 570 м
[Sc]
+26.1 +19.8 68 +32 +32 очень
душно
1010.0 1007.9 +33.4
15 15.09 штиль 0 10 км 1/1 570 м
[Sc]
+23.6 +19.3 77 +29 +29 душно 1011.1 1009.0
18 15.09 штиль 0 9000 м 1/1 570 м
[Sc]
+22.0 +18.8 82 +27 +27 душно 1010.2 1008.0
21 15.09 штиль 0 9000 м 1/1 570 м
[Sc]
+20.3 +18.1 87 +23 +23 комфорт 1010.1 1007.9
00 16.09 штиль 0 10 км 1/1 600 м
[Cu hum]
+28.0 +20.4 63 +34 +42 очень
душно
1011.5 1009.4 +19.5
03 16.09 ЮВ 5 10 км 1/1 600 м
[Cu med, cong]
+32.4 +18.3 43 +37 +47 очень
душно
1010.2 1008.1
06 16.09 Ю 8 10 км 1/1 600 м
[Cu med, cong]
+33.0 +16.7 38 +36 +38 очень
душно
1007.8 1005.6
09 16.09 Ю 5 10 км 1/1 600 м
[Sc]
+30.3 +18.2 48 +35 +35 очень
душно
1006.9 1004.6
12 16.09 ЮЗ 2 10 км 1/1 600 м
[Sc]
+25.4 +18.5 66 +30 +30 душно 1009.0 1006.6 +33.5
15 16.09 С 2 10 км 1/1 600 м
[Sc]
+23.8 +19.4 76 +29 +29 душно 1010.2 1007.8
18 16.09 штиль 0 10 км 1/1 600 м
[Sc]
+22.7 +20.3 86 +29 +29 очень
душно
1009.2 1006.8
21 16.09 ЮВ 2 10 км 1/1 600 м
[Sc]
+22.4 +20.6 90 +29 +29 очень
душно
1009.6 1007.2
00 17.09 ЮВ 3 10 км 4/4 540 м
[Cu med, cong Ac trans Ci fib]
+27.8 +20.7 65 +35 +38 очень
душно
1011.4 1009.2 +21.2
03 17.09 Ю 5 10 км 5/4 540 м
[Cu med, cong Ac trans Ci fib]
+32.7 +20.7 49 +40 +46 очень
душно
1010.1 1007.9
06 17.09 Ю 6 10 км 6/4 540 м
[Cu med, cong Ac trans Ci sp]
+32.7 +20.3 48 +39 +43 очень
душно
1008.3 1006.1
09 17.09 Ю 6 10 км 6/3 540 м
[Cu med, cong Ac trans Ci sp]
+30.8 +18.1 47 +35 +36 очень
душно
1008.3 1006.2
12 17.09 ЮВ 1 10 км 6/3 540 м
[Cu med, cong Ac trans Ci fib]
+28.0 +18.7 57 +33 +33 очень
душно
1010.5 1008.4 +33.6
15 17.09 ЮВ 1 8000 м 6/3 540 м
[Cu med, cong Ac trans Ci fib]
+26.4 +20.6 70 +33 +33 очень
душно
1011.9 1009.8
18 17.09 штиль 0 8000 м 6/4 540 м
[Cu med, cong Ac trans Ci fib]
+22.5 +20.1 86 +29 +29 очень
душно
1011.2 1009.1
21 17.09 штиль 0 8000 м 6/4 540 м
[Cu med, cong Ac trans Ci fib]
+22.5 +20.1 86 +29 +29 очень
душно
1011.2 1009.1
00 18.09 ЮВ 5 10 км 6/4 540 м
[Cu med, cong Ac trans Ci sp]
+29.4 +21.8 64 +38 +40 очень
душно
1012.1 1009.9 +21.5
03 18.09 Ю 6 10 км 5/4 540 м
[Cu med, cong Ac trans Ci fib]
+32.7 +20.7 49 +40 +45 очень
душно
1011.2 1009.0
06 18.09 Ю 5 10 км 5/4 540 м
[Cu med, cong Ac trans Ci fib]
+32.9 +19.7 46 +39 +43 очень
душно
1009.1 1006.9
09 18.09 Ю 6 10 км 4/3 540 м
[Cu med, cong Ac trans Ci fib]
+30.6 +19.9 53 +37 +37 очень
душно
1009.4 1007.2
12 18.09 Ю 4 10 км 4/3 540 м
[Cu med, cong Ac trans Ci fib]
+27.4 +20.1 64 +34 +34 очень
душно
1010.9 1008.8 +33.2
15 18.09 ЮВ 3 10 км 4/3 540 м
[Cu med, cong Ac trans Ci fib]
+27.0 +20.8 69 +34 +34 очень
душно
1011.6 1009.4
18 18.09 штиль 0 10 км 4/3 540 м
[Cu med, cong Ac trans Ci fib]
+24.0 +21.0 83 +30 +30 очень
душно
1010.5 1008.4
21 18.09 штиль 0 10 км 4/3 540 м
[Cu med, cong Ac trans Ci fib]
+22.3 +20.8 91 +29 +29 очень
душно
1011.4 1009.2
00 19.09 В 2 10 км 3/1 570 м
[Cu hum Ac trans Ci fib]
+27.5 +20.7 66 +34 +40 очень
душно
1012.6 1010.4 +21.6
03 19.09 Ю 5 10 км 4/4 600 м
[Cu hum Ac trans Ci fib]
+33.1 +21.1 49 +40 +47 очень
душно
1010.7 1008.5
06 19.09 Ю 5 10 км 3/3 600 м
[Cu med, cong Ac trans Ci fib]
+34.5 +18.6 39 +39 +45 очень
душно
1008.1 1005.9
09 19.09 ЮВ 4 10 км 4/3 600 м
[Cu med, cong Ac trans Ci fib]
+32.0 +19.4 47 +38 +38 очень
душно
1008.3 1006.1
12 19.09 штиль 0 8000 м 4/3 600 м
[Cu med, cong Ac trans Ci fib]
+26.8 +19.7 65 +33 +33 очень
душно
1010.3 1008.1 +34.7
15 19.09 З 1 8000 м 4/3 600 м
[Cu med, cong Ac trans Ci fib]
+24.8 +19.6 73 +30 +30 душно 1011.3 1009.2
18 19.09 штиль 0 8000 м 4/3 600 м
[Cu med, cong Ac trans Ci fib]
+21.7 +16.7 73 +26 +26 душно 1010.0 1007.8
21 19.09 штиль 0 8000 м 6/5 540 м
[Cu med, cong Ac trans Ci fib]
+20.7 +18.7 88 +24 +24 комфорт 1010.2 1008.0
00 20.09 штиль 0 8000 м 9/4 600 м
[Cu med, cong Ac trans Ci fib]
+26.7 +20.6 69 +33 +36 очень
душно
1011.5 1009.3 +20.9
03 20.09 Ю 5 10 км 8/4 600 м
[Cu med, cong Ac trans Ci fib]
+32.8 +21.8 52 +41 +46 опасность
перегрева
1009.6 1007.3
06 20.09 Ю 4 10 км 4/1 600 м
[Cu med, cong Ac trans Ci fib]
+34.0 +19.2 42 +39 +47 очень
душно
1007.1 1004.8
09 20.09 Ю 5 10 км 4/3 570 м
[Cu hum Ac trans Ci fib]
+30.5 +19.9 53 +37 +37 очень
душно
1007.8 1005.7
12 20.09 штиль 0 10 км 3/1 570 м
[Cu hum Ac trans Ci fib]
+26.9 +21.2 71 +34 +34 очень
душно
1010.0 1007.9 +34.6
15 20.09 штиль 0 9000 м 4/1 570 м
[Sc Ac trans Ci fib]
+25.3 +21.3 79 +32 +32 очень
душно
1010.9 1008.7
18 20.09 штиль 0 9000 м 4/1 570 м
[Sc Ac trans Ci fib]
+23.5 +21.1 86 +30 +30 очень
душно
1010.9 1007.6
21 20.09 штиль 0 9000 м 4/1 570 м
[Sc Ac trans Ci fib]
+22.4 +20.3 88 +29 +29 очень
душно
1010.3 1008.2
00 21.09 штиль 0 9000 м 5/1 600 м
[Sc Ac trans Ci fib]
+26.4 +21.2 73 +33 +40 очень
душно
1011.7 1009.5 +21.6

 

Местоположение метеостанции Горонтало (Индонезия): широта 0.52 долгота 123.06 высота над уровнем моря 2 м.

В архиве по умолчанию представлена погода в Горонтало за последнюю неделю. Архивные данные за месяц целиком и за предыдущие месяцы, начиная с января 2011 года, Вы можете получить, выбрав интересующий диапазон дат из раскрывающегося списка и нажав кнопку "Ввод!".


*Определитесь, кто Вы:
робот инопланетянин человек

Внимание! Время в таблицах - всемирное. Для получения местного времени необходимо прибавить поправку, которая равна 8 ч.

Смотрите также архив погоды в соседних городах и на ближайших метеорологических станциях:

Погода в Лувуке (Индонезия) (161 км)
Погода в Менадо (Индонезия) (234 км)
Погода в Битунге (Индонезия) (257 км)
Погода в Толи-Толи (Индонезия) (257 км)
Погода в Посо (Индонезия) (334 км)
Погода в Палу (Индонезия) (394 км)
Погода на Санане (Индонезия) (436 км)
Погода в Масамбе (Индонезия) (455 км)
Погода в Тернате (Индонезия) (479 км)
Погода в Лабухе (Индонезия) (510 км)

Пояснения к столбцам:

Ветер - указаны скорость ветра в м/с - средняя за 10 мин, порывы в срок и между сроками (в фигурных скобках) и направление, откуда дует ветер: С - северный, СВ - северо-восточный, В - восточный, ЮВ - юго-восточный, Ю - южный, ЮЗ - юго-западный, З - западный, СЗ - северо-западный.
Видимость - горизонтальная дальность видимости в метрах или километрах. При видимости от 1 до 10 км при отсутствии осадков обычно наблюдается дымка, при ухудшении видимости до 1 км и менее - туман. В сухую погоду видимость может ухудшаться дымом, пылью или мглою.
Явления - указаны атмосферные явления, наблюдавшиеся в срок или в последний час перед сроком; фигурными скобками обозначены явления, наблюдавшиеся между сроками (за 1-3 часа до срока); квадратными скобками обозначены град или гололедные отложения с указанием их диаметра в мм.
Облачность - указаны через наклонную черту общая и нижняя облачность в баллах и высота нижней границы облаков в метрах; квадратными скобками обозначены формы облаков: Ci - перистые, Cs - перисто-слоистые, Cc - перисто-кучевые, Ac - высококучевые, As - высокослоистые, Sc - слоисто-кучевые, Ns - слоисто-дождевые, Cu - кучевые, Cb - кучево-дождевые. Подробнее классификацию облаков см. в Атласе облаков (PDF).
T - Температура воздуха - температура, измеренная на высоте 2 м над землей.
Td - Температура точки росы - температура, при понижении до которой содержащийся в воздухе водяной пар достигнет насыщения.
f - Относительная влажность воздуха - влажноcть воздуха, измеренная на высоте 2 м над землей.
Te - Эффективная температура - температура, которую ощущает одетый по сезону человек в тени. Характеристика душности погоды. При расчете учитывается влияние влажности воздуха и скорости ветра на теплоощущения человека.
Tes - Эффективная температура на солнце - температура, которую ощущает человек, с поправкой на солнечный нагрев. Характеристика знойности погоды. Зависит от высоты солнца над горизонтом, облачности и скорости ветра. Ночью, в пасмурную погоду, а также при ветре 12 м/с и более поправка равна нулю.
P - Атмосферное давление - приведенное к уровню моря атмосферное давление.
Po - Атмосферное давление - измеренное на уровне метеостанции атмосферное давление.
Tmin - Минимальная температура - минимум температуры воздуха на высоте 2 м над землей.
Tmax - Максимальная температура - максимум температуры воздуха на высоте 2 м над землей.
R - Количество осадков - Количество выпавших осадков за период времени, мм. При наведении курсора мыши на число - период времени, за который выпало указанное количество осадков.
R24 - Количество осадков - Количество выпавших осадков за 24 часа, мм.
S - Снежный покров - Высота снежного покрова, см. При наведении курсора мыши на число - состояние снежного покрова и степень покрытия местности в баллах.